[[{"header":{"parameterUnit":"m.s-1","parameterCategory":2,"la1":30.2991,"la2":30.254,"lo1":-89.0895,"lo2":-89.0444,"dy":0.0017,"dx":0.0017,"nx":28,"ny":28,"refTime":"2025-06-17T09:00:00:Z","depth":"0","parameterNumber":2,"parameterNumberName":"U-component_of_CURRENTS"},"data":[0,0,0,0,0,0,0,0,0,0,0,0,0,0,0,0,0,0,0,0,0,0,0,0,0,0,0,0,0,0,0,0,0,0,0,0,0,0,0,0,0,0,0,0,0,0,0,0,0,0,0,0,0,0,0,0,0,0,0.1532,0.1533,0,0.1533,0.1533,0.1533,0.1503,0.1502,0.1501,0.1501,0.1432,0.1431,0.143,0,0,0,0,0,0,0,0,0,0,0,0,0,0.153,0.153,0.1532,0.1533,0.1533,0.1533,0.1533,0.1533,0.1503,0.1502,0.1501,0.15,0.1433,0.1432,0.143,0,0,0,0,0,0,0,0,0,0,0,0,0,0.153,0.153,0.1532,0.1518,0.1517,0.1533,0.1533,0.1533,0.1503,0.1502,0.1501,0.15,0.1433,0.1432,0.143,0.1441,0,0,0.1425,0.1424,0,0,0,0,0,0,0,0,0.153,0.153,0.152,0.1519,0.1518,0.1518,0.1507,0.1499,0.1503,0.1508,0.1501,0.15,0.1456,0.1452,0.1455,0.1438,0.1435,0.1425,0.1423,0.1423,0.1422,0,0,0,0,0,0,0,0.153,0.153,0.1532,0.1521,0.1519,0.1521,0.1519,0.1506,0.1486,0.1507,0.1505,0.1507,0.1455,0.1456,0.1452,0.1434,0.1425,0.1423,0.1422,0.1421,0.1425,0.1426,0,0,0,0,0,0,0.1531,0.153,0.1532,0.1532,0.1522,0.1521,0.152,0.1518,0.1487,0.1483,0.1508,0.1506,0.146,0.1455,0.145,0.1473,0.1423,0.1421,0.142,0.1423,0.1425,0.1426,0,0,0,0,0,0,0.1531,0.1532,0.1532,0.1532,0.1532,0.1523,0.1521,0.1519,0.1522,0.1489,0.1482,0.1513,0.1459,0.1452,0.145,0.1469,0.142,0.1419,0.1422,0.1424,0.1425,0.1511,0,0,0,0,0,0,0.1531,0.1531,0.1539,0.1532,0.1532,0.1545,0.1522,0.152,0.1525,0.1522,0.1491,0.1484,0.1457,0.1453,0.1448,0.1466,0.1417,0.1421,0.1423,0.1425,0.1507,0.1516,0.1523,0,0,0,0,0,0.1531,0.154,0.1539,0.154,0.154,0.1546,0.1547,0.1536,0.1526,0.1533,0.1518,0.1485,0.1462,0.1453,0.1447,0.1465,0.142,0.1422,0.1425,0.1504,0.1514,0.1523,0,0,0,0,0,0,0.1543,0.1538,0.1537,0.1544,0.1549,0.1541,0.1547,0.1544,0.154,0.1536,0.1502,0.1495,0.1502,0.1473,0.1463,0.1472,0.1434,0.1436,0.1496,0.1506,0.1514,0.1521,0.1416,0,0,0,0,0,0.1551,0.1557,0.1554,0.1564,0.1563,0.1559,0.1563,0.1559,0.1552,0.155,0.1532,0.1513,0.1509,0.1499,0.1488,0.1492,0.1499,0.1499,0.1507,0.1514,0.1516,0.1555,0.1568,0.1434,0.1434,0.1434,0,0,0.156,0.1559,0.1563,0.1568,0.1566,0.1574,0.1558,0.1567,0.158,0.1543,0.1552,0.1544,0.1519,0.1529,0.1527,0.1504,0.1561,0.1517,0.1524,0.1522,0.1559,0.1572,0.1584,0.1436,0.1436,0.1435,0,0,0.1574,0.1576,0.1583,0.1588,0.1593,0.1594,0.1599,0.1599,0.1602,0.1616,0.1598,0.1605,0.1586,0.1582,0.1575,0.162,0.1608,0.1612,0.1653,0.1691,0.1703,0.1713,0.1766,0.178,0.161,0.1611,0.1611,0,0.1589,0.1589,0.1589,0.1595,0.1601,0.1603,0.1613,0.1625,0.1629,0.1635,0.1624,0.1631,0.1612,0.1633,0.1652,0.1638,0.1664,0.162,0.1704,0.1714,0.1723,0.1774,0.1789,0.1615,0.1614,0.1614,0.1614,0,0.1601,0.1607,0.161,0.1618,0.1631,0.164,0.1653,0.1669,0.1674,0.1681,0.1707,0.1703,0.1698,0.1706,0.1692,0.1746,0.1748,0.1718,0.1683,0.1742,0.1792,0.1806,0.1621,0.162,0.1618,0.1617,0,0,0.1612,0.1617,0.1617,0.1621,0.1641,0.1648,0.168,0.1701,0.1717,0.1738,0.1761,0.178,0.1779,0.1772,0.1768,0.1807,0.1906,0.1795,0.1795,0.1855,0.2016,0.2017,0.2031,0.1897,0.1899,0.1901,0.2036,0,0.1619,0.1626,0.1634,0.1651,0.1654,0.1673,0.17,0.1726,0.1745,0.1771,0.1792,0.1807,0.1804,0.1809,0.1854,0.1886,0.1941,0.1873,0.1942,0.1945,0.1944,0.2046,0.1996,0.2111,0.2049,0.2051,0.2053,0,0.1619,0.1624,0.1633,0.1654,0.1658,0.1674,0.1709,0.1737,0.178,0.1795,0.1827,0.1838,0.19,0.1881,0.1994,0.1954,0.1995,0.2028,0.2033,0.2008,0.197,0.2036,0.2138,0.2002,0.2073,0.2071,0.207,0,0.1604,0.1621,0.1625,0.1631,0.1661,0.1672,0.1695,0.1738,0.176,0.181,0.1833,0.1895,0.1929,0.1998,0.2064,0.2038,0.2191,0.2152,0.2199,0.22,0.2156,0.2149,0.2135,0.2239,0.2239,0.2238,0.2238,0,0.1597,0.1602,0.1613,0.1615,0.1628,0.1659,0.1681,0.1713,0.176,0.1787,0.1841,0.1881,0.1962,0.2046,0.21,0.2208,0.2222,0.2238,0.2243,0.2186,0.2181,0.2055,0.2001,0.2243,0.2242,0.2241,0.224,0,0.1578,0.1584,0.1587,0.1609,0.1616,0.1625,0.1661,0.1677,0.1736,0.1778,0.1797,0.1893,0.2011,0.2102,0.2222,0.2255,0.2285,0.2371,0.231,0.2306,0.2208,0.2162,0.2148,0.2112,0.2459,0.246,0.2461,0,0.1564,0.1563,0.1571,0.1567,0.1572,0.1589,0.1599,0.1652,0.1672,0.1781,0.1799,0.1929,0.2006,0.2207,0.2303,0.243,0.2322,0.2436,0.2369,0.2225,0.2177,0.2083,0.2046,0.236,0.236,0.236,0.236,0,0.1544,0.1543,0.1543,0.1532,0.153,0.1536,0.1557,0.1572,0.1641,0.1693,0.1777,0.1854,0.2061,0.2158,0.233,0.2411,0.2306,0.2438,0.2302,0.2123,0.2009,0.1968,0.2253,0.2359,0.2359,0.2359,0.2359,0.2359,0.1518,0.1513,0.1503,0.149,0.1485,0.1479,0.1472,0.1507,0.1543,0.161,0.1712,0.1799,0.1959,0.2202,0.2276,0.2314,0.2315,0.2253,0.2224,0.2151,0.2064,0.236,0.2451,0.2452,0.2452,0.2452,0.2453,0,0.1477,0.1473,0.1463,0.1437,0.1407,0.1425,0.1435,0.1425,0.1447,0.1531,0.1599,0.171,0.1833,0.1969,0.2094,0.2065,0.2026,0.2015,0.1843,0.1833,0.2108,0.2044,0.2035,0.2035,0.2035,0.2035,0.2035,0.2035,0.1452,0.1428,0.1424,0.1361,0.1341,0.1299,0.1293,0.13,0.1339,0.1381,0.142,0.1494,0.1632,0.1739,0.1761,0.1779,0.1632,0.1611,0.1583,0.1716,0.1733,0.1749,0.1672,0.1585,0.1584,0.1252,0.1249,0.1247]},{"header":{"parameterUnit":"m.s-1","parameterCategory":2,"la1":30.2991,"la2":30.254,"lo1":-89.0895,"lo2":-89.0444,"dy":0.0017,"dx":0.0017,"nx":28,"ny":28,"refTime":"2025-06-17T09:00:00:Z","depth":"0","parameterNumber":3,"parameterNumberName":"V-component_of_CURRENTS"},"data":[0,0,0,0,0,0,0,0,0,0,0,0,0,0,0,0,0,0,0,0,0,0,0,0,0,0,0,0,0,0,0,0,0,0,0,0,0,0,0,0,0,0,0,0,0,0,0,0,0,0,0,0,0,0,0,0,0,0,0.0287,0.0287,0,0.028,0.028,0.028,0.0267,0.0267,0.0267,0.0267,0.0205,0.0204,0.0202,0,0,0,0,0,0,0,0,0,0,0,0,0,0.0301,0.0301,0.0287,0.0287,0.0287,0.028,0.028,0.028,0.0267,0.0267,0.0267,0.0267,0.0206,0.0204,0.0202,0,0,0,0,0,0,0,0,0,0,0,0,0,0.0293,0.0301,0.0287,0.0281,0.0281,0.028,0.028,0.028,0.0267,0.0267,0.0267,0.0267,0.0206,0.0204,0.0202,0.019,0,0,0.0195,0.0194,0,0,0,0,0,0,0,0,0.0294,0.0292,0.0282,0.0282,0.0281,0.0276,0.0263,0.0247,0.0267,0.027,0.0267,0.0267,0.0225,0.0221,0.0218,0.0187,0.0184,0.0194,0.0193,0.0192,0.0191,0,0,0,0,0,0,0,0.0294,0.0293,0.0283,0.0282,0.0282,0.0283,0.0282,0.026,0.0246,0.027,0.027,0.0272,0.0224,0.0221,0.0217,0.0183,0.0194,0.0192,0.0191,0.019,0.0108,0.0107,0,0,0,0,0,0,0.0298,0.0293,0.0283,0.0283,0.0289,0.0283,0.0281,0.0276,0.0248,0.0244,0.0272,0.0271,0.0225,0.0219,0.0214,0.0205,0.0192,0.019,0.0188,0.0109,0.0108,0.0107,0,0,0,0,0,0,0.0298,0.0297,0.0283,0.029,0.0288,0.0283,0.0278,0.0276,0.0275,0.025,0.0245,0.0272,0.0224,0.0218,0.0195,0.0202,0.0189,0.0187,0.011,0.0108,0.0107,0.0182,0,0,0,0,0,0,0.0298,0.0297,0.0299,0.029,0.0288,0.0292,0.0278,0.0276,0.0277,0.0276,0.0248,0.0242,0.0224,0.0199,0.0193,0.0199,0.0185,0.0111,0.0109,0.0108,0.0181,0.0184,0.0186,0,0,0,0,0,0.0299,0.0303,0.0299,0.0298,0.0289,0.0293,0.0292,0.0287,0.0277,0.0283,0.0257,0.0243,0.0185,0.0197,0.019,0.0195,0.0111,0.0109,0.0108,0.0179,0.0183,0.0186,0,0,0,0,0,0,0.0311,0.0302,0.0297,0.0298,0.03,0.0291,0.0296,0.0289,0.0275,0.027,0.0241,0.0233,0.0211,0.0186,0.02,0.0162,0.0142,0.0139,0.0199,0.0202,0.0205,0.0229,0.0183,0,0,0,0,0,0.0315,0.0313,0.0308,0.031,0.031,0.0302,0.0303,0.0301,0.0287,0.0281,0.0261,0.0228,0.0198,0.0189,0.0157,0.0146,0.0126,0.0138,0.0141,0.0144,0.0156,0.0122,0.0125,0.0101,0.0101,0.0101,0,0,0.032,0.0315,0.0314,0.0313,0.031,0.0318,0.0302,0.0308,0.0315,0.0275,0.0272,0.0237,0.0193,0.0177,0.0165,0.0162,0.0141,0.0142,0.0145,0.0155,0.0121,0.0124,0.0126,0.01,0.01,0.01,0,0,0.0332,0.0325,0.0329,0.0334,0.0336,0.0333,0.0336,0.0331,0.0329,0.0325,0.0287,0.0263,0.0226,0.0201,0.018,0.0177,0.0152,0.0156,0.0203,0.0171,0.0174,0.0175,0.0168,0.0168,0.0166,0.0166,0.0166,0,0.0339,0.0344,0.0334,0.0344,0.0354,0.0341,0.0357,0.0353,0.0343,0.034,0.0332,0.0274,0.024,0.0216,0.0215,0.0188,0.017,0.0202,0.0179,0.018,0.0181,0.0172,0.0172,0.0169,0.0169,0.0168,0.0168,0,0.0357,0.0366,0.037,0.0376,0.0386,0.0398,0.0397,0.0397,0.0392,0.0388,0.0369,0.0329,0.0296,0.0277,0.025,0.0232,0.0218,0.0184,0.0181,0.0188,0.0178,0.0176,0.0174,0.0173,0.0172,0.0171,0,0,0.0357,0.0378,0.038,0.0398,0.0408,0.0419,0.0427,0.0434,0.0442,0.043,0.0438,0.039,0.037,0.0344,0.0303,0.0284,0.0278,0.0246,0.0242,0.026,0.0225,0.0228,0.0226,0.024,0.024,0.0239,0.0221,0,0.0375,0.0407,0.041,0.0446,0.0466,0.0464,0.0476,0.048,0.0479,0.0481,0.0447,0.0431,0.0394,0.0379,0.0356,0.0293,0.0274,0.0287,0.0196,0.0194,0.0214,0.0225,0.0262,0.025,0.022,0.0219,0.0219,0,0.0388,0.0413,0.0451,0.049,0.0497,0.0514,0.0536,0.0548,0.0542,0.054,0.0525,0.0492,0.0465,0.0426,0.0354,0.0364,0.0301,0.0258,0.0255,0.0233,0.0195,0.0231,0.0248,0.0181,0.0217,0.0217,0.0217,0,0.04,0.0441,0.0475,0.0489,0.0526,0.054,0.0558,0.0565,0.0582,0.0576,0.059,0.0545,0.053,0.0454,0.0373,0.0356,0.0299,0.0256,0.0204,0.0204,0.0207,0.0207,0.0167,0.0197,0.0197,0.0197,0.0197,0,0.0416,0.0444,0.0485,0.0506,0.0549,0.0569,0.0605,0.0612,0.063,0.0659,0.0623,0.0637,0.0534,0.0488,0.04,0.0318,0.0315,0.0224,0.0199,0.0233,0.0237,0.0153,0.0115,0.0196,0.0196,0.0196,0.0196,0,0.0418,0.0442,0.0488,0.0538,0.0555,0.0587,0.064,0.0664,0.0684,0.0722,0.0723,0.0704,0.0653,0.0557,0.0441,0.0361,0.0247,0.0232,0.0297,0.0279,0.0164,0.0129,0.0086,0.007,0.0176,0.0176,0.0176,0,0.042,0.0445,0.051,0.054,0.0563,0.0613,0.0643,0.0679,0.0712,0.0768,0.0788,0.0762,0.0755,0.0617,0.0467,0.0331,0.0256,0.0262,0.0226,0.0177,0.0118,0.0108,0.0097,0.0263,0.0263,0.0264,0.0264,0,0.0432,0.0453,0.0494,0.0555,0.0597,0.0647,0.07,0.0734,0.0784,0.0833,0.0885,0.0892,0.0784,0.0673,0.0497,0.0398,0.0249,0.0268,0.0192,0.0171,0.0181,0.0149,0.0268,0.0269,0.0269,0.0268,0.0268,0.0268,0.0436,0.0469,0.0522,0.0577,0.0624,0.0678,0.0724,0.0786,0.0857,0.0954,0.0956,0.1011,0.0857,0.063,0.0491,0.027,0.0261,0.0199,0.0159,0.0152,0.0142,0.0288,0.0269,0.0269,0.0269,0.0268,0.0268,0,0.0446,0.0488,0.0542,0.061,0.0656,0.0681,0.0759,0.082,0.0912,0.1015,0.1081,0.1059,0.0869,0.0655,0.0346,0.0189,0.0147,0.0111,0.0099,0.0089,0.0197,0.0204,0.0202,0.0202,0.0202,0.0202,0.0202,0.0202,0.0457,0.0509,0.0544,0.0624,0.0668,0.0738,0.0784,0.0887,0.0979,0.1125,0.1191,0.1227,0.1071,0.0517,0.0162,0.0089,-0.001,-0.0012,-0.0081,-0.0022,-0.0017,-0.0012,-0.0015,-0.0063,-0.0063,-0.0143,-0.0144,-0.0145]}],[{"header":{"parameterUnit":"m.s-1","parameterCategory":2,"la1":30.2991,"la2":30.254,"lo1":-89.0895,"lo2":-89.0444,"dy":0.0017,"dx":0.0017,"nx":28,"ny":28,"refTime":"2025-06-17T09:00:00:Z","depth":"2","parameterNumber":2,"parameterNumberName":"U-component_of_CURRENTS"},"data":[0,0,0,0,0,0,0,0,0,0,0,0,0,0,0,0,0,0,0,0,0,0,0,0,0,0,0,0,0,0,0,0,0,0,0,0,0,0,0,0,0,0,0,0,0,0,0,0,0,0,0,0,0,0,0,0,0,0,0.0918,0.0918,0,0.0939,0.094,0.0941,0.0988,0.0988,0.0989,0.0989,0.1011,0.1011,0.1012,0,0,0,0,0,0,0,0,0,0,0,0,0,0.0873,0.0875,0.0918,0.0918,0.0917,0.0939,0.094,0.0941,0.0988,0.0988,0.0989,0.0989,0.1011,0.1011,0.1012,0,0,0,0,0,0,0,0,0,0,0,0,0,0.0899,0.0875,0.0918,0.0939,0.0941,0.0939,0.094,0.0941,0.0988,0.0988,0.0989,0.099,0.1011,0.1011,0.1012,0.1,0,0,0.1012,0.1013,0,0,0,0,0,0,0,0,0.0898,0.0901,0.0936,0.0938,0.094,0.0956,0.0932,0.0959,0.0988,0.0976,0.0989,0.099,0.0989,0.0991,0.1002,0.1001,0.1002,0.1012,0.1013,0.1013,0.1013,0,0,0,0,0,0,0,0.0896,0.09,0.0932,0.0936,0.0938,0.0932,0.0937,0.0937,0.0983,0.0977,0.0979,0.0972,0.099,0.1001,0.1002,0.1003,0.1012,0.1013,0.1013,0.1013,0.0985,0.0984,0,0,0,0,0,0,0.0883,0.0899,0.0932,0.0932,0.0913,0.0932,0.0938,0.0955,0.0983,0.0986,0.0971,0.0974,0.1001,0.1002,0.1003,0.1066,0.1013,0.1013,0.1013,0.0985,0.0984,0.0983,0,0,0,0,0,0,0.0883,0.0887,0.0931,0.091,0.0914,0.0932,0.095,0.0955,0.1013,0.0978,0.0982,0.1029,0.1001,0.1003,0.1009,0.1064,0.1013,0.1013,0.0987,0.0985,0.0984,0.1144,0,0,0,0,0,0,0.0882,0.0887,0.0926,0.091,0.0915,0.094,0.0949,0.0955,0.1002,0.1007,0.1027,0.1028,0.1002,0.1009,0.101,0.1064,0.1014,0.0988,0.0986,0.0984,0.1139,0.1148,0.1155,0,0,0,0,0,0.0881,0.0901,0.0929,0.0933,0.0959,0.094,0.0944,0.096,0.1004,0.1021,0.1026,0.103,0.0998,0.1009,0.101,0.1066,0.0989,0.0986,0.0984,0.1136,0.1146,0.1155,0,0,0,0,0,0,0.0917,0.0907,0.0937,0.0964,0.0964,0.0946,0.097,0.0994,0.1019,0.1033,0.1029,0.1027,0.1051,0.1016,0.1029,0.1038,0.099,0.0988,0.1104,0.1114,0.1121,0.1136,0.1014,0,0,0,0,0,0.0941,0.0944,0.0946,0.0968,0.0981,0.0998,0.101,0.1012,0.1013,0.103,0.1047,0.1041,0.1034,0.1044,0.1019,0.104,0.1026,0.1064,0.1072,0.1079,0.1083,0.1092,0.1104,0.0977,0.0977,0.0977,0,0,0.0958,0.0953,0.0961,0.0975,0.0991,0.0995,0.101,0.102,0.104,0.1024,0.1082,0.1077,0.104,0.1054,0.1061,0.1044,0.111,0.1077,0.1085,0.1084,0.1092,0.1105,0.1117,0.0975,0.0975,0.0976,0,0,0.097,0.1003,0.1018,0.1014,0.1022,0.1015,0.1033,0.1048,0.1086,0.1112,0.1107,0.1132,0.1132,0.112,0.1113,0.1143,0.1147,0.114,0.1214,0.1224,0.1237,0.1247,0.1276,0.1288,0.1152,0.1152,0.1152,0,0.1,0.1019,0.1019,0.1026,0.1017,0.1035,0.1041,0.1074,0.109,0.1126,0.1137,0.1166,0.1159,0.1181,0.1198,0.1172,0.1181,0.1202,0.1243,0.1253,0.1261,0.1287,0.1298,0.1159,0.1158,0.1158,0.1157,0,0.101,0.104,0.1043,0.1054,0.1045,0.1041,0.1057,0.1111,0.1163,0.1183,0.1245,0.1239,0.1254,0.1268,0.1258,0.1314,0.1304,0.1259,0.1242,0.1285,0.1307,0.1317,0.117,0.1167,0.1165,0.1163,0,0,0.1033,0.1051,0.1058,0.1069,0.1052,0.1039,0.1093,0.1133,0.1197,0.1243,0.131,0.1343,0.1368,0.1356,0.1359,0.1392,0.1488,0.1375,0.1372,0.1444,0.1543,0.1373,0.1366,0.147,0.1472,0.1473,0.1549,0,0.1053,0.1067,0.1059,0.1066,0.1072,0.1087,0.1126,0.1161,0.1217,0.1287,0.133,0.1372,0.139,0.1422,0.1462,0.1466,0.1513,0.1473,0.1452,0.1451,0.1329,0.1369,0.124,0.128,0.1557,0.1559,0.156,0,0.107,0.1066,0.1083,0.1083,0.1093,0.1105,0.1162,0.1195,0.1286,0.1339,0.1403,0.1422,0.1494,0.1486,0.1561,0.1544,0.1565,0.1573,0.1575,0.1361,0.1295,0.1268,0.1285,0.1574,0.1573,0.1572,0.1571,0,0.1064,0.1081,0.1092,0.1084,0.1096,0.1141,0.1162,0.1233,0.1273,0.1377,0.1418,0.1484,0.1521,0.1566,0.1596,0.1599,0.1652,0.1638,0.1508,0.1498,0.1348,0.1319,0.1687,0.1687,0.1687,0.1687,0.1687,0,0.106,0.1074,0.1112,0.1112,0.1136,0.1147,0.1209,0.1263,0.1331,0.1354,0.1447,0.1462,0.1547,0.1576,0.161,0.1575,0.1662,0.1528,0.1499,0.1396,0.1371,0.1574,0.156,0.169,0.1689,0.1689,0.1688,0,0.1051,0.1082,0.1093,0.1126,0.1136,0.1161,0.1207,0.1257,0.1341,0.1375,0.1405,0.1468,0.151,0.1567,0.1616,0.1564,0.1559,0.1523,0.1399,0.1351,0.1412,0.1405,0.141,0.1405,0.14,0.1396,0.1393,0,0.1046,0.1043,0.1087,0.1103,0.1129,0.1173,0.12,0.1259,0.129,0.1347,0.1345,0.1404,0.1408,0.1419,0.1387,0.1403,0.1464,0.1211,0.1162,0.1409,0.1382,0.1382,0.1381,0.1067,0.1061,0.1057,0.1053,0,0.0976,0.1014,0.1031,0.1071,0.1105,0.1138,0.1181,0.1169,0.1225,0.1268,0.1263,0.1269,0.1279,0.1203,0.1178,0.1137,0.1195,0.1108,0.1416,0.1113,0.1078,0.1053,0.1065,0.1011,0.1015,0.1018,0.1021,0.1022,0.0932,0.0933,0.097,0.1022,0.1057,0.1081,0.1102,0.1134,0.1137,0.1168,0.1149,0.1143,0.1029,0.0954,0.0917,0.0887,0.0949,0.0851,0.087,0.0893,0.0795,0.0748,0.0606,0.0608,0.0609,0.0611,0.0612,0,0.0831,0.0878,0.0903,0.0958,0.0994,0.1069,0.1074,0.1075,0.1072,0.1076,0.1109,0.0835,0.0775,0.0752,0.0674,0.059,0.0646,0.0518,0.0615,0.065,0.0682,0.0581,0.0332,0.0333,0.0333,0.0334,0,0,0.0773,0.0773,0.0805,0.0863,0.0959,0.1012,0.1033,0.1023,0.1006,0.0884,0.0861,0.087,0.0734,0.0577,0.0477,0.0453,0.0579,0.0407,0.061,0.0763,0.0799,0.0816,0.0688,0,0,0,0,0]},{"header":{"parameterUnit":"m.s-1","parameterCategory":2,"la1":30.2991,"la2":30.254,"lo1":-89.0895,"lo2":-89.0444,"dy":0.0017,"dx":0.0017,"nx":28,"ny":28,"refTime":"2025-06-17T09:00:00:Z","depth":"2","parameterNumber":3,"parameterNumberName":"V-component_of_CURRENTS"},"data":[0,0,0,0,0,0,0,0,0,0,0,0,0,0,0,0,0,0,0,0,0,0,0,0,0,0,0,0,0,0,0,0,0,0,0,0,0,0,0,0,0,0,0,0,0,0,0,0,0,0,0,0,0,0,0,0,0,0,-0.0284,-0.0284,0,-0.0305,-0.0305,-0.0305,-0.0303,-0.0303,-0.0303,-0.0303,-0.0285,-0.0284,-0.0284,0,0,0,0,0,0,0,0,0,0,0,0,0,-0.0327,-0.0326,-0.0284,-0.0284,-0.0285,-0.0305,-0.0305,-0.0305,-0.0303,-0.0303,-0.0303,-0.0303,-0.0285,-0.0284,-0.0284,0,0,0,0,0,0,0,0,0,0,0,0,0,-0.032,-0.0325,-0.0283,-0.0289,-0.029,-0.0305,-0.0305,-0.0305,-0.0303,-0.0303,-0.0303,-0.0303,-0.0285,-0.0284,-0.0284,-0.0278,0,0,-0.0281,-0.0281,0,0,0,0,0,0,0,0,-0.0321,-0.0318,-0.0288,-0.0289,-0.029,-0.0305,-0.0314,-0.0295,-0.0303,-0.0294,-0.0303,-0.0303,-0.029,-0.0289,-0.0288,-0.0277,-0.0276,-0.0281,-0.0281,-0.028,-0.028,0,0,0,0,0,0,0,-0.0321,-0.0318,-0.0288,-0.0289,-0.029,-0.0321,-0.0318,-0.0311,-0.0288,-0.0294,-0.0295,-0.0304,-0.029,-0.0289,-0.0287,-0.0276,-0.0281,-0.0281,-0.028,-0.028,-0.0305,-0.0307,0,0,0,0,0,0,-0.0321,-0.0317,-0.0287,-0.0289,-0.031,-0.032,-0.0317,-0.0297,-0.0289,-0.0289,-0.0304,-0.0304,-0.029,-0.0288,-0.0287,-0.0264,-0.028,-0.028,-0.0279,-0.0304,-0.0306,-0.0307,0,0,0,0,0,0,-0.0322,-0.0317,-0.0286,-0.0309,-0.0308,-0.0319,-0.0296,-0.0297,-0.0277,-0.0297,-0.0296,-0.0281,-0.029,-0.0288,-0.0288,-0.0264,-0.0279,-0.0279,-0.0303,-0.0305,-0.0306,-0.0229,0,0,0,0,0,0,-0.0322,-0.0316,-0.0298,-0.0308,-0.0307,-0.0291,-0.0296,-0.0298,-0.0285,-0.0285,-0.0277,-0.0277,-0.029,-0.0289,-0.0287,-0.0263,-0.0278,-0.0302,-0.0304,-0.0306,-0.023,-0.0228,-0.0226,0,0,0,0,0,-0.0323,-0.0313,-0.0296,-0.0293,-0.028,-0.0291,-0.0292,-0.0299,-0.0284,-0.0278,-0.0284,-0.0276,-0.0302,-0.0289,-0.0287,-0.0262,-0.0301,-0.0303,-0.0306,-0.0231,-0.0228,-0.0226,0,0,0,0,0,0,-0.0318,-0.0312,-0.0294,-0.0277,-0.0277,-0.0292,-0.0297,-0.0283,-0.0279,-0.0276,-0.0279,-0.028,-0.0279,-0.0291,-0.0276,-0.0285,-0.0304,-0.0306,-0.0248,-0.0246,-0.0244,-0.023,-0.0277,0,0,0,0,0,-0.0306,-0.0303,-0.0291,-0.0282,-0.0277,-0.0273,-0.0274,-0.0271,-0.0276,-0.0273,-0.0263,-0.0273,-0.0291,-0.0282,-0.0304,-0.0288,-0.0316,-0.0281,-0.0279,-0.0276,-0.027,-0.032,-0.0321,-0.0315,-0.0315,-0.0315,0,0,-0.0308,-0.0303,-0.0301,-0.0282,-0.0282,-0.0278,-0.0272,-0.0272,-0.0266,-0.0272,-0.0252,-0.0262,-0.0292,-0.0293,-0.0292,-0.0291,-0.0291,-0.0279,-0.0276,-0.0271,-0.0323,-0.0323,-0.0323,-0.0317,-0.0317,-0.0317,0,0,-0.0305,-0.0293,-0.0276,-0.028,-0.0275,-0.028,-0.027,-0.0257,-0.0246,-0.0236,-0.0249,-0.0246,-0.0251,-0.0268,-0.028,-0.0279,-0.0288,-0.0281,-0.0235,-0.0283,-0.0283,-0.0284,-0.0299,-0.0302,-0.0266,-0.0266,-0.0266,0,-0.0299,-0.027,-0.0277,-0.0265,-0.0284,-0.0274,-0.0268,-0.0258,-0.0245,-0.0222,-0.023,-0.0237,-0.0248,-0.0254,-0.0252,-0.0268,-0.0288,-0.023,-0.0276,-0.0278,-0.0279,-0.0296,-0.03,-0.0262,-0.0263,-0.0263,-0.0264,0,-0.0287,-0.026,-0.0262,-0.0245,-0.0267,-0.0268,-0.027,-0.023,-0.0213,-0.0205,-0.0191,-0.0217,-0.0212,-0.0219,-0.0226,-0.0232,-0.0239,-0.0273,-0.027,-0.0274,-0.0293,-0.0297,-0.0258,-0.0259,-0.026,-0.0261,0,0,-0.0265,-0.0249,-0.024,-0.0232,-0.026,-0.0271,-0.0249,-0.0222,-0.0173,-0.0173,-0.014,-0.0164,-0.0149,-0.0166,-0.0174,-0.0202,-0.0215,-0.022,-0.0225,-0.0212,-0.0293,-0.0327,-0.0336,-0.0249,-0.025,-0.0251,-0.0292,0,-0.0238,-0.0204,-0.0225,-0.022,-0.0213,-0.0221,-0.0198,-0.0181,-0.0162,-0.0119,-0.0138,-0.0127,-0.0143,-0.0121,-0.0154,-0.0215,-0.0228,-0.0199,-0.0312,-0.0315,-0.0326,-0.0344,-0.0239,-0.027,-0.0297,-0.0298,-0.0299,0,-0.0206,-0.0192,-0.0172,-0.0175,-0.0172,-0.0166,-0.0132,-0.0121,-0.0069,-0.0041,-0.0032,-0.0051,-0.0075,-0.0099,-0.0193,-0.017,-0.021,-0.0261,-0.0265,-0.0328,-0.036,-0.0279,-0.0279,-0.0308,-0.0307,-0.0306,-0.0306,0,-0.0182,-0.0161,-0.0146,-0.0159,-0.0151,-0.0118,-0.011,-0.0068,-0.0037,0.0008,0.0043,-0.0006,-0.002,-0.0105,-0.0205,-0.0188,-0.0331,-0.033,-0.0395,-0.0397,-0.0347,-0.0344,-0.0386,-0.0386,-0.0386,-0.0386,-0.0386,0,-0.0159,-0.0145,-0.011,-0.0104,-0.0063,-0.0088,-0.0024,0.0014,0.0057,0.0082,0.0082,0.0084,-0.0022,-0.0115,-0.0203,-0.0332,-0.0336,-0.0388,-0.0419,-0.0318,-0.0313,-0.0384,-0.0384,-0.0387,-0.0387,-0.0387,-0.0387,0,-0.0142,-0.0116,-0.0095,-0.0059,-0.0046,-0.0021,0.0023,0.0082,0.0127,0.0156,0.017,0.0143,0.0037,-0.009,-0.0242,-0.0323,-0.0452,-0.0488,-0.0351,-0.0365,-0.0468,-0.0463,-0.0538,-0.0539,-0.0541,-0.0542,-0.0543,0,-0.0135,-0.012,-0.0064,-0.003,-0.0007,0.0043,0.0094,0.0127,0.0167,0.0177,0.0184,0.0119,0.0093,-0.0138,-0.0273,-0.0424,-0.0487,-0.0467,-0.0423,-0.0466,-0.0488,-0.0481,-0.0474,-0.0309,-0.0308,-0.0307,-0.0306,0,-0.0155,-0.0118,-0.0079,0.0015,0.0068,0.0116,0.0176,0.0197,0.022,0.0274,0.0264,0.0242,0.0092,-0.0029,-0.0237,-0.0328,-0.0439,-0.0456,-0.0554,-0.0304,-0.0259,-0.0278,-0.0277,-0.0299,-0.03,-0.03,-0.0301,-0.0301,-0.0156,-0.0124,-0.0038,0.0052,0.0116,0.0175,0.0237,0.0291,0.0345,0.0415,0.0331,0.0334,0.0159,-0.0041,-0.0203,-0.0349,-0.0356,-0.0417,-0.0415,-0.0415,-0.0398,-0.0361,-0.0414,-0.0416,-0.0417,-0.0418,-0.0419,0,-0.0163,-0.0099,-0.0016,0.0097,0.0185,0.0235,0.0294,0.036,0.0445,0.0484,0.0543,0.0336,0.0247,0.0031,-0.0131,-0.0268,-0.0219,-0.0344,-0.0248,-0.0253,-0.0258,-0.0231,-0.0204,-0.0205,-0.0205,-0.0205,0,0,-0.0159,-0.0085,-0.0022,0.0134,0.0244,0.0372,0.0426,0.0509,0.0555,0.0564,0.0571,0.0593,0.0286,0.0165,0.0006,-0.0091,-0.0129,-0.0094,-0.024,-0.0104,-0.0107,-0.0266,-0.0227,0,0,0,0,0]}],[{"header":{"parameterUnit":"m.s-1","parameterCategory":2,"la1":30.2991,"la2":30.254,"lo1":-89.0895,"lo2":-89.0444,"dy":0.0017,"dx":0.0017,"nx":28,"ny":28,"refTime":"2025-06-17T09:00:00:Z","depth":"4","parameterNumber":2,"parameterNumberName":"U-component_of_CURRENTS"},"data":[0,0,0,0,0,0,0,0,0,0,0,0,0,0,0,0,0,0,0,0,0,0,0,0,0,0,0,0,0,0,0,0,0,0,0,0,0,0,0,0,0,0,0,0,0,0,0,0,0,0,0,0,0,0,0,0,0,0,-0.0296,-0.0296,0,-0.0326,-0.0326,-0.0327,-0.0368,-0.0369,-0.0369,-0.037,-0.0375,-0.0375,-0.0374,0,0,0,0,0,0,0,0,0,0,0,0,0,-0.0288,-0.0288,-0.0296,-0.0296,-0.0296,-0.0326,-0.0327,-0.0327,-0.0368,-0.0369,-0.0369,-0.037,-0.0375,-0.0375,-0.0374,0,0,0,0,0,0,0,0,0,0,0,0,0,-0.0304,-0.0288,-0.0296,-0.0318,-0.032,-0.0326,-0.0327,-0.0327,-0.0368,-0.0369,-0.0369,-0.037,-0.0375,-0.0375,-0.0374,-0.0358,0,0,-0.0373,-0.0373,0,0,0,0,0,0,0,0,-0.0303,-0.0305,-0.0315,-0.0317,-0.0319,-0.0342,-0.0326,-0.0336,-0.0368,-0.0353,-0.037,-0.037,-0.0359,-0.036,-0.0369,-0.0359,-0.0359,-0.0373,-0.0373,-0.0373,-0.0373,0,0,0,0,0,0,0,-0.0302,-0.0304,-0.031,-0.0315,-0.0317,-0.0331,-0.0335,-0.0328,-0.0354,-0.0354,-0.0357,-0.0355,-0.0361,-0.0369,-0.0369,-0.0359,-0.0373,-0.0373,-0.0372,-0.0372,-0.0385,-0.0386,0,0,0,0,0,0,-0.0291,-0.0303,-0.0309,-0.0311,-0.031,-0.0331,-0.0334,-0.0336,-0.0354,-0.0357,-0.0355,-0.0357,-0.0369,-0.0369,-0.0369,-0.0408,-0.0373,-0.0372,-0.0372,-0.0385,-0.0386,-0.0386,0,0,0,0,0,0,-0.0291,-0.0292,-0.0308,-0.0305,-0.0308,-0.033,-0.0331,-0.0336,-0.0367,-0.0354,-0.0358,-0.0383,-0.037,-0.037,-0.0391,-0.0406,-0.0372,-0.0372,-0.0384,-0.0385,-0.0386,-0.0448,0,0,0,0,0,0,-0.0291,-0.0292,-0.0293,-0.0305,-0.0308,-0.0326,-0.033,-0.0336,-0.0362,-0.0367,-0.0379,-0.0379,-0.037,-0.0392,-0.0391,-0.0405,-0.0371,-0.0383,-0.0385,-0.0386,-0.0445,-0.0451,-0.0455,0,0,0,0,0,-0.0291,-0.029,-0.0293,-0.0294,-0.0307,-0.0326,-0.033,-0.0349,-0.0363,-0.038,-0.0395,-0.038,-0.0398,-0.0393,-0.0391,-0.0405,-0.0383,-0.0384,-0.0386,-0.0442,-0.0449,-0.0455,0,0,0,0,0,0,-0.0293,-0.0294,-0.0298,-0.0299,-0.0317,-0.0333,-0.0347,-0.0362,-0.0388,-0.04,-0.0393,-0.0394,-0.0414,-0.0401,-0.0396,-0.041,-0.0385,-0.0386,-0.0429,-0.0435,-0.044,-0.0418,-0.0371,0,0,0,0,0,-0.029,-0.0289,-0.03,-0.0304,-0.0314,-0.0336,-0.0347,-0.0366,-0.0386,-0.04,-0.0407,-0.0412,-0.0414,-0.0421,-0.0417,-0.043,-0.0401,-0.0435,-0.044,-0.0445,-0.0425,-0.0412,-0.0414,-0.0391,-0.0391,-0.0391,0,0,-0.0292,-0.0292,-0.0293,-0.0304,-0.0321,-0.0335,-0.0347,-0.0377,-0.0395,-0.0393,-0.0425,-0.0431,-0.0421,-0.0438,-0.0444,-0.0433,-0.0439,-0.0446,-0.0451,-0.0427,-0.0413,-0.0415,-0.0417,-0.0392,-0.0391,-0.0391,0,0,-0.0294,-0.03,-0.0302,-0.0316,-0.034,-0.0352,-0.0366,-0.0397,-0.042,-0.0447,-0.045,-0.047,-0.0473,-0.0474,-0.0472,-0.0501,-0.0465,-0.0501,-0.0514,-0.0503,-0.0504,-0.0505,-0.0482,-0.048,-0.0506,-0.0507,-0.0507,0,-0.0298,-0.0299,-0.0309,-0.0318,-0.0329,-0.0361,-0.0377,-0.0401,-0.0437,-0.0449,-0.0463,-0.0478,-0.0485,-0.0493,-0.0509,-0.0513,-0.0492,-0.0495,-0.0509,-0.051,-0.0509,-0.0485,-0.0482,-0.051,-0.0509,-0.0509,-0.0509,0,-0.03,-0.0307,-0.0316,-0.0329,-0.0345,-0.037,-0.0397,-0.0426,-0.0455,-0.047,-0.0497,-0.0514,-0.0514,-0.0531,-0.0531,-0.0537,-0.0519,-0.0518,-0.0494,-0.0516,-0.0489,-0.0485,-0.0514,-0.0513,-0.0512,-0.0511,0,0,-0.0296,-0.0312,-0.0317,-0.0323,-0.0358,-0.037,-0.0403,-0.043,-0.0444,-0.0485,-0.0493,-0.0527,-0.0534,-0.0531,-0.0542,-0.0546,-0.0549,-0.0535,-0.0533,-0.0512,-0.0511,-0.0455,-0.0445,-0.0553,-0.0552,-0.0552,-0.0497,0,-0.03,-0.0307,-0.0319,-0.0338,-0.0347,-0.038,-0.0401,-0.0431,-0.0456,-0.0472,-0.05,-0.051,-0.0534,-0.0541,-0.055,-0.0541,-0.0538,-0.0562,-0.0491,-0.0488,-0.0436,-0.0438,-0.055,-0.0493,-0.0492,-0.0492,-0.0491,0,-0.0299,-0.0302,-0.0317,-0.0334,-0.0344,-0.0364,-0.0394,-0.0417,-0.0445,-0.0461,-0.0479,-0.0486,-0.05,-0.0517,-0.0509,-0.0522,-0.0514,-0.0512,-0.051,-0.0424,-0.0424,-0.0464,-0.0483,-0.0484,-0.0485,-0.0485,-0.0486,0,-0.0283,-0.0301,-0.031,-0.0319,-0.0346,-0.0368,-0.0389,-0.042,-0.0429,-0.0451,-0.0443,-0.0463,-0.0457,-0.0463,-0.0458,-0.0482,-0.043,-0.0463,-0.0402,-0.0398,-0.044,-0.0439,-0.0444,-0.0444,-0.0444,-0.0444,-0.0444,0,-0.0275,-0.0283,-0.0306,-0.0315,-0.0327,-0.0359,-0.0376,-0.0398,-0.0415,-0.0402,-0.0435,-0.0413,-0.0442,-0.0417,-0.0431,-0.0386,-0.0405,-0.0386,-0.0375,-0.0469,-0.0472,-0.0437,-0.0437,-0.0442,-0.0442,-0.0443,-0.0443,0,-0.0259,-0.0273,-0.0284,-0.0315,-0.0322,-0.0338,-0.0361,-0.036,-0.0386,-0.0364,-0.0363,-0.0362,-0.0336,-0.0345,-0.0334,-0.0329,-0.0311,-0.029,-0.0363,-0.0361,-0.0298,-0.0302,-0.0227,-0.0224,-0.0222,-0.022,-0.0219,0,-0.025,-0.0254,-0.0279,-0.0277,-0.0297,-0.0316,-0.0317,-0.0346,-0.0334,-0.0322,-0.0294,-0.027,-0.0266,-0.0199,-0.0228,-0.0224,-0.0232,-0.0209,-0.0282,-0.0275,-0.0274,-0.0281,-0.0288,-0.0215,-0.0215,-0.0214,-0.0213,0,-0.0233,-0.025,-0.0261,-0.0259,-0.0263,-0.0248,-0.0253,-0.0236,-0.0247,-0.0261,-0.021,-0.0194,-0.0152,-0.0158,-0.0136,-0.0147,-0.0222,-0.0187,-0.0193,-0.0262,-0.0261,-0.0263,-0.0272,-0.0206,-0.0207,-0.0208,-0.0208,0,-0.0227,-0.0229,-0.0242,-0.0242,-0.0224,-0.0183,-0.0192,-0.0166,-0.016,-0.0153,-0.0128,-0.0123,-0.0129,-0.0114,-0.0101,-0.0094,-0.012,-0.0126,-0.0136,-0.0145,-0.0147,-0.0135,-0.0016,0,0,0,0,0,-0.0211,-0.0213,-0.0211,-0.0202,-0.0177,-0.0164,-0.014,-0.0146,-0.0148,-0.0096,-0.0116,-0.0083,-0.0064,-0.0069,-0.0052,-0.0082,-0.0126,-0.006,-0.0139,-0.0164,-0.0173,-0.0185,0,0,0,0,0,0,-0.02,-0.0205,-0.0212,-0.0166,-0.0141,-0.0105,-0.0083,-0.0082,-0.006,-0.0067,-0.0062,-0.007,-0.0064,-0.0077,-0.0051,-0.0051,-0.0094,-0.0066,-0.0065,-0.0159,-0.0167,-0.0174,-0.019,0,0,0,0,0]},{"header":{"parameterUnit":"m.s-1","parameterCategory":2,"la1":30.2991,"la2":30.254,"lo1":-89.0895,"lo2":-89.0444,"dy":0.0017,"dx":0.0017,"nx":28,"ny":28,"refTime":"2025-06-17T09:00:00:Z","depth":"4","parameterNumber":3,"parameterNumberName":"V-component_of_CURRENTS"},"data":[0,0,0,0,0,0,0,0,0,0,0,0,0,0,0,0,0,0,0,0,0,0,0,0,0,0,0,0,0,0,0,0,0,0,0,0,0,0,0,0,0,0,0,0,0,0,0,0,0,0,0,0,0,0,0,0,0,0,0.0084,0.0084,0,0.0062,0.0062,0.0061,0.0103,0.0104,0.0105,0.0107,0.0175,0.0176,0.0177,0,0,0,0,0,0,0,0,0,0,0,0,0,0.0125,0.0124,0.0084,0.0084,0.0083,0.0062,0.0062,0.0061,0.0102,0.0104,0.0106,0.0107,0.0175,0.0176,0.0177,0,0,0,0,0,0,0,0,0,0,0,0,0,0.0106,0.0124,0.0084,0.0101,0.0103,0.0062,0.0062,0.0061,0.0102,0.0104,0.0106,0.0108,0.0175,0.0176,0.0177,0.0141,0,0,0.0179,0.018,0,0,0,0,0,0,0,0,0.0107,0.0104,0.0099,0.01,0.0101,0.0087,0.0101,0.0092,0.0101,0.0102,0.0107,0.0109,0.0153,0.0156,0.0146,0.0144,0.0147,0.0179,0.018,0.018,0.018,0,0,0,0,0,0,0,0.0108,0.0105,0.0075,0.0098,0.01,0.0098,0.0098,0.0099,0.0118,0.0102,0.0105,0.0102,0.0155,0.0145,0.0148,0.0148,0.0179,0.018,0.0181,0.0181,0.0227,0.0227,0,0,0,0,0,0,0.011,0.0106,0.0076,0.0075,0.0109,0.0095,0.0095,0.009,0.0116,0.0121,0.01,0.0104,0.0142,0.0147,0.0151,0.0199,0.018,0.0181,0.0181,0.0226,0.0227,0.0228,0,0,0,0,0,0,0.0111,0.0107,0.0077,0.009,0.0086,0.0093,0.0086,0.0088,0.0094,0.0114,0.0121,0.0106,0.0144,0.0149,0.0169,0.0199,0.0181,0.0182,0.0225,0.0226,0.0227,0.0238,0,0,0,0,0,0,0.0112,0.0108,0.0105,0.009,0.0086,0.0059,0.0084,0.0086,0.0088,0.0093,0.0121,0.0128,0.0146,0.0168,0.017,0.02,0.0183,0.0224,0.0226,0.0227,0.0237,0.0239,0.0242,0,0,0,0,0,0.0114,0.0104,0.0105,0.0101,0.0081,0.0058,0.0055,0.0067,0.0087,0.0082,0.0109,0.0128,0.0179,0.0168,0.0171,0.0201,0.0224,0.0225,0.0227,0.0236,0.0239,0.0242,0,0,0,0,0,0,0.0118,0.0107,0.0108,0.0095,0.0079,0.0065,0.0063,0.0067,0.0079,0.0094,0.0121,0.0129,0.0164,0.0172,0.0159,0.022,0.021,0.0212,0.0217,0.022,0.0222,0.0205,0.0183,0,0,0,0,0,0.0115,0.0108,0.0092,0.008,0.0075,0.0068,0.0062,0.0065,0.0072,0.008,0.0102,0.0134,0.0166,0.0184,0.0204,0.022,0.0211,0.0247,0.025,0.0252,0.0241,0.025,0.0251,0.0233,0.0233,0.0233,0,0,0.0111,0.0105,0.01,0.008,0.0073,0.0053,0.007,0.0059,0.0051,0.0084,0.0097,0.0137,0.0171,0.0203,0.022,0.0218,0.0252,0.0254,0.0255,0.0243,0.0251,0.0253,0.0255,0.0234,0.0234,0.0234,0,0,0.0098,0.0096,0.0086,0.0071,0.0057,0.0048,0.0046,0.0039,0.005,0.0056,0.0096,0.0145,0.0175,0.0214,0.0237,0.0257,0.0261,0.028,0.0281,0.0291,0.0292,0.0293,0.0276,0.0276,0.0284,0.0284,0.0284,0,0.0094,0.0077,0.0077,0.006,0.0046,0.0046,0.0025,0.0024,0.0027,0.0041,0.0065,0.0143,0.0179,0.023,0.0254,0.0263,0.0259,0.0269,0.0292,0.0293,0.0294,0.0277,0.0276,0.0285,0.0285,0.0285,0.0285,0,0.007,0.0055,0.0047,0.0026,0.0011,-0.0009,-0.0015,-0.0012,0.001,0.0022,0.0078,0.0132,0.0186,0.0219,0.0247,0.0288,0.0279,0.0291,0.0282,0.0296,0.0278,0.0277,0.0286,0.0286,0.0286,0.0285,0,0,0.0059,0.0035,0.0031,0.0015,-0.0009,-0.0027,-0.0035,-0.0039,-0.003,0.0009,0.0034,0.0122,0.0172,0.0201,0.0257,0.0278,0.0293,0.0293,0.0293,0.0269,0.0295,0.0234,0.0227,0.0313,0.0313,0.0314,0.0277,0,0.0037,0.0005,-0.0005,-0.0044,-0.0064,-0.0068,-0.0078,-0.0075,-0.0051,-0.0026,0.005,0.0105,0.0159,0.0212,0.0239,0.0281,0.0292,0.03,0.029,0.0289,0.0227,0.0224,0.0314,0.0276,0.0276,0.0275,0.0275,0,0.0015,-0.0004,-0.0041,-0.0074,-0.0082,-0.0103,-0.011,-0.0115,-0.0079,-0.0046,0.0021,0.0075,0.0143,0.0182,0.0237,0.0242,0.0267,0.0289,0.0288,0.0223,0.0226,0.0261,0.0273,0.0273,0.0273,0.0274,0.0274,0,0.0008,-0.0033,-0.006,-0.0075,-0.0109,-0.0117,-0.0125,-0.011,-0.0101,-0.0043,-0.0016,0.0055,0.0108,0.0147,0.0207,0.0227,0.0235,0.0265,0.0223,0.0218,0.028,0.0279,0.0283,0.0283,0.0283,0.0283,0.0283,0,-0.0015,-0.004,-0.0062,-0.0081,-0.011,-0.0121,-0.0131,-0.012,-0.0094,-0.0077,-0.001,0.0015,0.0105,0.0127,0.0173,0.018,0.0208,0.0207,0.0204,0.0285,0.0285,0.0278,0.0278,0.0282,0.0282,0.0282,0.0282,0,-0.0024,-0.0039,-0.0073,-0.0104,-0.0114,-0.0127,-0.014,-0.0139,-0.0106,-0.0083,-0.0057,-0.0011,0.001,0.006,0.011,0.0132,0.015,0.0145,0.0197,0.02,0.0133,0.0134,0.0089,0.0087,0.0085,0.0083,0.0081,0,-0.0035,-0.005,-0.0086,-0.0099,-0.0114,-0.0131,-0.0143,-0.0134,-0.013,-0.0105,-0.0097,-0.0074,-0.0043,-0.004,0.0013,0.0047,0.0068,0.0075,0.0134,0.0111,0.0113,0.0118,0.0122,0.0078,0.0077,0.0077,0.0076,0,-0.0057,-0.0062,-0.0088,-0.0105,-0.0125,-0.0152,-0.0163,-0.0162,-0.0147,-0.0129,-0.0125,-0.0106,-0.0108,-0.0078,-0.0061,-0.0023,0.0071,0.0054,0.006,0.0115,0.0097,0.0102,0.0109,0.0069,0.007,0.0071,0.0071,0,-0.007,-0.0086,-0.0103,-0.012,-0.0135,-0.0153,-0.0168,-0.0178,-0.0178,-0.0148,-0.0163,-0.0141,-0.0127,-0.0119,-0.0103,-0.0083,-0.0059,-0.002,-0.0009,-0.0001,-0.0009,-0.0045,-0.0133,0,0,0,0,0,-0.0087,-0.0101,-0.0115,-0.0137,-0.0143,-0.0149,-0.0173,-0.0184,-0.0179,-0.018,-0.0165,-0.0167,-0.0151,-0.0153,-0.0145,-0.0138,-0.0056,-0.0127,-0.0004,0.0029,0.0037,0.0038,0,0,0,0,0,0,-0.0104,-0.012,-0.012,-0.0131,-0.0136,-0.0155,-0.0164,-0.017,-0.0177,-0.0167,-0.017,-0.0157,-0.0155,-0.0149,-0.014,-0.0137,-0.0056,-0.0121,-0.0121,0.0024,0.0031,0.0038,0.0042,0,0,0,0,0]}]]